Change the Weather History Date:

Friday, October 28, 2011

  Actual Average Record
Temperature  
Mean Temperature 56 °F 68 °F  
Max Temperature 66 °F 79 °F 90 °F (1931)
Min Temperature 46 °F 57 °F 35 °F (1957)
Degree Days  
Heating Degree Days 9 2  
Month to date heating degree days 15 22  
Since 1 July heating degree days 15 24  
Cooling Degree Days 0 5  
Month to date cooling degree days 229 206  
Year to date cooling degree days 3887 3040  
Growing Degree Days 6 (Base 50)    
Moisture  
Dew Point 40 °F    
Average Humidity 55    
Maximum Humidity 71    
Minimum Humidity 39    
Precipitation  
Precipitation 0.00 in 0.11 in 1.09 in (1989)
Month to date precipitation 3.28 3.77  
Year to date precipitation 12.93 27.74  
Snow  
Snow 0.00 in - - ()
Month to date snowfall 0.0  
Since 1 July snowfall 0.0  
Since 1 September snowfall 0.0  
Snow Depth 0.00 in    
Sea Level Pressure  
Sea Level Pressure 30.18 in    
Wind  
Wind Speed 13 mph (North)    
Max Wind Speed 25 mph    
Max Gust Speed 32 mph    
Visibility 10 miles    
Events      
T = Trace of Precipitation, MM = Missing Value Source: NWS Daily Summary

Daily Weather History Graph

Daily Weather History Graph

Search for Another Location

Airport or City:

Trip Planner

Search our weather history database for the weather conditions in past years. The results will help you decide how hot, cold, wet, or windy it might be!

Date:

Astronomy

Oct. 28, 2011 Rise Set
Actual Time 7:44 AM CDT 6:50 PM CDT
Civil Twilight 7:19 AM CDT 7:15 PM CDT
Nautical Twilight 6:51 AM CDT 7:43 PM CDT
Astronomical Twilight 6:23 AM CDT 8:11 PM CDT
Moon 9:48 AM CDT (10/28) 8:28 PM CDT (10/28)
Length of Visible Light 11h 55m
Length of Day
11h 06m
Waxing Crescent, 5% of the Moon is Illuminated
Oct 28
Waxing Crescent
Nov 2
First Quarter
Nov 10
Full
Nov 18
Last Quarter
Nov 25
New

Hourly Weather History & Observations

Time (CDT) Temp. Dew Point Humidity Pressure Visibility Wind Dir Wind Speed Gust Speed Precip Events Conditions
12:53 AM 53.1 °F 43.0 °F 69% 30.05 in 10.0 mi North 13.8 mph - N/A   Overcast
1:00 AM 53.6 °F 42.8 °F 67% 30.09 in 10.0 mi North 24.2 mph 31.1 mph N/A   Overcast
1:53 AM 52.0 °F 43.0 °F 71% 30.05 in 10.0 mi North 17.3 mph 26.5 mph N/A   Overcast
2:53 AM 51.8 °F 42.8 °F 71% 30.10 in 10.0 mi North 17.3 mph 24.2 mph N/A   Overcast
3:53 AM 52.0 °F 42.1 °F 69% 30.07 in 10.0 mi North 12.7 mph 23.0 mph N/A   Overcast
4:53 AM 51.1 °F 42.1 °F 71% 30.09 in 10.0 mi North 13.8 mph 23.0 mph N/A   Overcast
5:53 AM 51.1 °F 41.0 °F 68% 30.12 in 10.0 mi North 15.0 mph - N/A   Overcast
6:53 AM 51.1 °F 39.9 °F 66% 30.14 in 10.0 mi North 18.4 mph 24.2 mph N/A   Overcast
7:53 AM 51.1 °F 39.9 °F 66% 30.17 in 10.0 mi North 17.3 mph 26.5 mph N/A   Overcast
8:53 AM 52.0 °F 39.9 °F 63% 30.20 in 10.0 mi North 16.1 mph 20.7 mph N/A   Overcast
9:32 AM 53.6 °F 41.0 °F 62% 30.24 in 10.0 mi North 11.5 mph 21.9 mph N/A   Overcast
9:53 AM 54.0 °F 39.9 °F 59% 30.22 in 10.0 mi North 15.0 mph 24.2 mph N/A   Overcast
10:53 AM 55.9 °F 39.9 °F 55% 30.24 in 10.0 mi North 15.0 mph 28.8 mph N/A   Mostly Cloudy
11:53 AM 60.8 °F 39.2 °F 45% 30.26 in 10.0 mi NNE 17.3 mph 26.5 mph N/A   Partly Cloudy
12:53 PM 62.1 °F 39.9 °F 44% 30.22 in 10.0 mi North 17.3 mph 24.2 mph N/A   Partly Cloudy
1:53 PM 64.4 °F 39.2 °F 40% 30.23 in 10.0 mi North 16.1 mph 25.3 mph N/A   Partly Cloudy
2:53 PM 64.9 °F 39.9 °F 40% 30.17 in 10.0 mi North 15.0 mph 26.5 mph N/A   Partly Cloudy
3:53 PM 64.0 °F 39.0 °F 40% 30.17 in 10.0 mi North 15.0 mph 24.2 mph N/A   Partly Cloudy
4:53 PM 63.0 °F 39.0 °F 41% 30.18 in 10.0 mi North 11.5 mph 23.0 mph N/A   Partly Cloudy
5:53 PM 62.1 °F 37.9 °F 41% 30.18 in 10.0 mi North 11.5 mph 20.7 mph N/A   Clear
6:53 PM 60.1 °F 37.9 °F 44% 30.20 in 10.0 mi North 9.2 mph 18.4 mph N/A   Clear
7:53 PM 55.9 °F 37.9 °F 51% 30.21 in 10.0 mi NNW 5.8 mph - N/A   Clear
8:53 PM 53.1 °F 39.0 °F 59% 30.24 in 10.0 mi NNW 4.6 mph - N/A   Clear
9:53 PM 52.0 °F 39.0 °F 61% 30.27 in 10.0 mi NNW 5.8 mph - N/A   Clear
10:53 PM 48.9 °F 39.0 °F 69% 30.28 in 10.0 mi NW 5.8 mph - N/A   Clear
11:53 PM 48.0 °F 39.0 °F 71% 30.28 in 10.0 mi NW 3.5 mph - N/A   Clear